NOAA NWS Hourly Roundups by Site

Regional Weather Roundup for Bismarck, ND

To Select Another Site Choose from List

Select Site:  

000
ASUS43 KBIS 191710
RWRBIS

NWR BROADCAST TEXT
NATIONAL WEATHER SERVICE BISMARCK ND
1200 PM CDT SAT SEP 19 2020

NOTE: "FAIR" INDICATES FEW OR NO CLOUDS BELOW 12,000 FEET WITH NO
SIGNIFICANT WEATHER AND/OR OBSTRUCTIONS TO VISIBILITY.


CITY           SKY/WX    TMP DP  RH WIND       PRES   REMARKS
WILLISTON      FAIR      63  50  62 SE13      29.91F
MINOT          SUNNY     68  50  52 E10       29.96F
MINOT AFB      SUNNY     68  51  54 SE10      29.95F
BISMARCK       MOSUNNY   64  50  60 E7        29.96F
DICKINSON      MOSUNNY   61  51  70 E10       29.90F
GARRISON         N/A     62  50  64 E8        29.96F
HETTINGER ARPT PTSUNNY   62  53  72 E9        29.91F
JAMESTOWN      SUNNY     66  48  52 SE13      30.01F
CARRINGTON     FAIR      68  48  49 SE15      30.02F
HAZEN          FAIR      61  52  72 E9        29.97F
MANDAN         FAIR      59  54  82 E10       29.96F
OAKES          FAIR      68  54  60 S12G18    30.02F
RUGBY          FAIR      68  52  56 E13       29.99F
STANLEY        FAIR      66  54  63 SE15      29.96F
TIOGA          FAIR      64  55  72 E18       29.95F
WATFORD CITY   FAIR      61  50  67 E12       29.92F
$$

CITY           SKY/WX    TMP DP  RH WIND       PRES   REMARKS
GRAND FORKS    SUNNY     67  43  41 S8        30.05F
GRAND FORKS AF SUNNY     67  47  47 S6        30.05F
DEVILS LAKE    SUNNY     64  49  57 SE9       30.03F
FARGO          SUNNY     68  47  46 S12       30.06F
CANDO          FAIR      68  52  56 E8        30.04S
CAVALIER       FAIR      66  48  52 S7        30.04S
GRAFTON        FAIR      66  46  48 VRB6      30.07F
GWINNER        SUNNY     68  54  60 SE9       30.04F
LANGDON        CLOUDY    73  54  49 E9        30.04F
ROLLA          FAIR      68  48  49 SE10      30.03S
WALHALLA       FAIR      68  68 100 E8        30.03F
$$

CITY           SKY/WX    TMP DP  RH WIND       PRES   REMARKS
ABERDEEN       LGT RAIN  68  52  56 S17       30.00F
MOBRIDGE       MOSUNNY   68  53  58 S12       29.91F
BUFFALO          N/A     67  51  56 VRB7      29.87F
RAPID CITY     PTSUNNY   68  52  56 SE3       29.90F
GLASGOW        PTSUNNY   64  51  62 E17       29.80F
SIDNEY         MOSUNNY   63  51  65 E8        29.89F
WOLF POINT     MOSUNNY   64  51  62 E15       29.84F
GLENDIVE       MOSUNNY   63  53  70 E8        29.87S
MILES CITY     PTSUNNY   68  52  56 E6        29.80F
BAKER          MOSUNNY   63  52  67 SE15      29.89F
$$

CITY           SKY/WX    TMP DP  RH WIND       PRES   REMARKS
BILLINGS       CLOUDY    65  46  50 CALM      29.81R
GREAT FALLS    CLOUDY    68  42  38 SW15G25   29.83S
REGINA         PTSUNNY   66  50  55 SE21      29.91S
ESTEVAN        SUNNY     70  52  52 SE17G26   29.93F
$$




 

View Past Reports for Bismarck, ND.

Products Courtesy of NOAA-NWS
NWS Information Parsing Script by Ken True at Saratoga Weather - Script by SE Lincoln Weather.